Weather in Druzhino

Russia / Mari El Republic     56°32′08″N   49°56′53″E
temp.,
°C
wind,
m/s
gust,
m/s
humid.,
%
clouds,
%
prec.,
mm/h
press.,
hPa
HPBL,
m
22 may, sun
sun2200:00−1nw489868 0.0 1005224
03:000nw4791100 0.1 1004618
06:00+1nw469488 0.4 1003462
09:00+3nw4571100 0.8 10021146
12:00+4nw5563100 0.3 10011550
15:00+4nw556093 0.4 10011295
18:00+4wnw446277 0.1 10001030
21:000w348043 0.1 100058
23 may, mon
mon2300:00−1w348835 0.0 99981
03:00−2w359680 0.0 99990
06:00+2w348032 0.0 998377
09:00+6wsw4558100 0.1 9971582
12:00+6wsw5657100 0.1 9981525
15:00+6wsw5665100 0.4 9991207
18:00+5wsw4776100 0.4 999920
21:00+2sw4108795 0.6 1000320
24 may, tue
tue2400:00+2ssw4991100 0.0 1000315
03:00+2ssw5997100 0.1 1001607
06:00+2sw599793 0.6 1001502
09:00+4ssw5782100 0.7 1003913
12:00+8ssw6864100 0.7 10031529
15:00+7sw687595 1.7 10041103
18:00+5ssw259193 2.1 1006500
21:00+3wsw33945 2.1 100758
25 may, wed
wed2500:00+1sw339364 0.0 100841
03:00+1wsw2290100 0.0 100829
06:00+3w2282100 0.0 1009229
09:00+7w236546 0.1 10091159
12:00+8w446092 0.3 10091230
15:00+9w545980 0.4 10091376
18:00+8w34635 0.0 10101095
21:00+3wsw33865 0.0 101030
26 may, thu
thu2600:00+2wsw359665 0.0 101089
03:00+3w4797100 1.2 1009530
06:00+3w4896100 1.7 1009621
09:00+4wsw5991100 1.8 1009819
12:00+6wsw5878100 0.1 1009883
15:00+8wsw5674100 0.6 10081075
18:00+7sw5885100 1.1 1007510
21:00+5w2596100 2.9 1005214